Location: Unspecified
(0.0000°N, 0.0000°E)
Time: 16:44:36
(UTC+00:00)

LilacSat-2 - Visible Passes

Search period start: 08 September 2024 00:00
Search period end: 18 September 2024 00:00
Orbit: 470 x 489 km, 97.5° (Epoch: 08 September)

Date Brightness Start Highest point End Pass type
(mag) Time Alt. Az. Time Alt. Az. Time Alt. Az.
08 Sep ? 18:52:48 10° SW 18:55:16 18° WSW 18:57:42 10° WNW visible
09 Sep ? 18:25:58 10° S 18:29:24 49° WSW 18:32:48 10° NNW visible
11 Sep ? 19:10:15 10° WSW 19:10:33 10° WSW 19:10:50 10° W visible
12 Sep ? 05:23:03 10° E 05:24:25 12° ESE 05:25:47 10° SE visible
12 Sep ? 18:41:33 10° SSW 18:44:34 27° WSW 18:47:33 10° NW visible
13 Sep ? 18:15:00 10° S 18:18:31 81° WSW 18:22:01 10° NNW visible
15 Sep ? 18:57:09 10° SW 18:59:20 16° WSW 19:01:30 10° WNW visible
16 Sep ? 18:29:49 10° S 18:33:10 43° WSW 18:36:30 10° NNW visible
